Location: Domont
(49.0278°N, 2.3264°E)
Time: 07:44:52
(UTC+00:00)

NINGXIA-1 10 - Visible Passes

Search period start: 27 November 2022 00:00
Search period end: 07 December 2022 00:00
Orbit: 860 x 871 km, 45.0° (Epoch: 27 November)

Date Brightness Start Highest point End Pass type
(mag) Time Alt. Az. Time Alt. Az. Time Alt. Az.
28 Nov ? 19:20:33 10° SSW 19:20:47 11° S 19:20:47 11° S visible
29 Nov ? 19:11:08 10° SSW 19:12:35 16° S 19:12:35 16° S visible
30 Nov ? 19:01:47 10° SSW 19:04:22 21° S 19:04:22 21° S visible
01 Dec ? 18:52:30 10° SSW 18:56:04 27° S 18:56:04 27° S visible
02 Dec ? 17:00:33 10° SSE 17:02:12 11° SE 17:03:49 10° ESE visible
02 Dec ? 18:43:14 10° SW 18:47:43 32° S 18:47:43 32° S visible
02 Dec ? 20:29:40 10° WSW 20:29:58 11° WSW 20:29:58 11° WSW visible
03 Dec ? 16:50:19 10° SSE 16:53:00 13° SE 16:55:42 10° ESE visible
03 Dec ? 18:34:01 10° SW 18:39:18 37° SSE 18:39:18 37° SSE visible
03 Dec ? 20:20:37 10° WSW 20:21:34 15° WSW 20:21:34 15° WSW visible
04 Dec ? 16:40:28 10° S 16:43:50 16° SE 16:47:12 10° ESE visible
04 Dec ? 18:24:50 10° SW 18:30:20 40° SSE 18:30:52 39° SE visible
04 Dec ? 20:11:34 10° WSW 20:13:07 19° WSW 20:13:07 19° WSW visible
05 Dec ? 16:30:49 10° S 16:34:41 18° SE 16:38:33 10° E visible
05 Dec ? 18:15:40 10° SW 18:21:16 43° SSE 18:22:23 39° SE visible
05 Dec ? 20:02:32 10° WSW 20:04:38 22° WSW 20:04:38 22° WSW visible
06 Dec ? 18:06:32 10° SW 18:12:12 47° SSE 18:13:53 37° ESE visible
06 Dec ? 19:53:31 10° W 19:56:08 27° WSW 19:56:08 27° WSW visible
